Miscellaneous Local Product
Issued by NWS North Platte, NE

Home | Current Version | Previous Version | Text Only | Print | Product List | Glossary On
Versions: 1 2 3 4 5 6 7 8 9 10 11 12 13 14 15 16 17 18 19 20 21 22 23 24 25 26 27 28 29 30 31 32 33 34 35 36 37 38 39 40 41 42 43 44 45 46 47 48 49 50
000
AXUS43 KLBF 272110
MISLBF


WESTERN AND NORTH CENTRAL NEBRASKA HOURLY WEATHER ROUNDUP
NATIONAL WEATHER SERVICE NORTH PLATTE NE
400 PM CDT WED MAY 27 2015

***STATIONS NOT REPORTING VARIABLES SUCH AS SKY/WEATHER OR
PRESSURE ARE PROVIDED BY THE NEBRASKA DEPARTMENT OF
ROADS...RAWS...AND APRS NETWORKS...AND ARE NOT UNDER
NATIONAL WEATHER SERVICE QUALITY CONTROL***

...OBSERVATIONS IN AND NEAR THE EASTERN PANHANDLE OF NEBRASKA...

CITY           SKY/WX    TMP DP  RH WIND       PRES   REMARKS
PINE RIDGE     PTSUNNY   74  52  46 S17       29.95F
CHADRON        TSTM      63  49  60 E10G37    29.97R VSB 3/4
ALLIANCE       CLOUDY    62  48  60 W22G35    30.02R
SIDNEY         PTSUNNY   72  55  55 S8        30.02F
WHITECLAY        N/A     74  52  46 S18         N/A
BIG SPRINGS      N/A     72  57  59 SE15        N/A
$$

...OBSERVATIONS IN NORTH CENTRAL NEBRASKA...

CITY           SKY/WX    TMP DP  RH WIND       PRES   REMARKS
VALENTINE      PTSUNNY   77  49  37 S18G29    30.00F
THEDFORD       PTSUNNY   76  53  44 SE18      30.03F
AINSWORTH      PTSUNNY   75  50  40 SE9       30.03F
O`NEILL        PTSUNNY   76  45  32 S8        30.05S
ORD            PTSUNNY   79  47  32 SE8       30.03F
BROKEN BOW     MOSUNNY   76  52  43 S18G25    30.04F
BROWNLEE         N/A     79  46  31 S18         N/A
VALENTINE NWR    N/A     77  51  39 S15G22      N/A
SPRINGVIEW       N/A     78  53  41 SW9G18      N/A
HALSEY           N/A     78  50  37 S12G20      N/A
BREWSTER         N/A     80  54  40 S16         N/A
ROSE             N/A     81  55  40 E15         N/A
NEWPORT          N/A     77  49  37 S14         N/A
SARGENT          N/A     77  53  42 SE5         N/A
COMSTOCK         N/A     82  53  36 S13         N/A
EWING            N/A     82  51  33 S6          N/A
$$

...OBSERVATIONS IN SOUTHWEST NEBRASKA AND FAR NORTHEAST COLORADO...

CITY           SKY/WX    TMP DP  RH WIND       PRES   REMARKS
WRAY           LGT RAIN  77  53  43 S16       29.98F
HOLYOKE        FAIR      68  57  68 SE10G22   29.99F
IMPERIAL       PTSUNNY   69  58  67 SE16      29.98F
OGALLALA       MOSUNNY   73  56  55 SE17G23   30.00F
NORTH PLATTE   MOSUNNY   75  55  49 S21G26    30.02F
MCCOOK         PTSUNNY   74  58  57 SE18      30.02F
LEXINGTON      CLOUDY    71  58  63 S17       30.06F
PAXTON           N/A     76  60  56 SE20        N/A
GOTHENBURG       N/A     70  55  59 S9          N/A
CALLAWAY         N/A     75  60  60 S25         N/A
$$

...NORTH PLATTE AREA...

CITY           SKY/WX    TMP DP  RH WIND       PRES   REMARKS
AIRPORT        MOSUNNY   75  55  49 S21G26    30.02F
$$

...SOME WEATHER OBSERVATIONS FROM AROUND THE REGION...

CITY           SKY/WX    TMP DP  RH WIND       PRES   REMARKS
DENVER         MOSUNNY   75  43  31 N9        30.03F
LARAMIE        PTSUNNY   64  36  35 W15G23    30.12F
CHEYENNE       PTSUNNY   67  39  35 CALM      30.07S
SCOTTSBLUFF    CLOUDY    62 N/A N/A SE7       30.02F
RAPID CITY     CLOUDY    67  57  70 S3        29.94F
PIERRE         PTSUNNY   75  51  43 S17       29.96F
WINNER         PTSUNNY   80  46  30 S17G28    30.00F
SIOUX FALLS    MOSUNNY   80  49  33 W5        30.01S
OMAHA          MOSUNNY   83  48  29 SW7       30.05S
GRAND ISLAND   PTSUNNY   82  41  23 S10       30.06F
KANSAS CITY    PTSUNNY   81  55  40 S6        30.09S
WICHITA        PTSUNNY   81  63  54 SE12      30.06F
HAYS           MOSUNNY   79  61  53 SE18G28   30.04F
LIBERAL        MOSUNNY   84  61  45 SE17      29.99F
GOODLAND       MOSUNNY   75  61  61 SE18G25   29.99F
$$



USA.gov is the U.S. government's official web portal to all federal, state and local government web resources and services.